Погода в Нихалое

Россия / Чеченская Республика     42°50′32″N   45°39′50″E
темп.,
°C
ветер,
м/с
пор.,
м/с
влажн.,
%
обл.,
%
осадки,
мм/ч
давл.,
гПа
погр.,
м
24 января, пн
пн2400:00−3ю57644 0.0 1011100
03:00−3ю56624 0.0 101376
06:00−4ю45679 0.0 101458
09:00+1ю356520 0.1 1012178
12:00+4ююз35431 0.0 10111176
15:00+2ссз035318 0.0 1013863
18:00−6ю32782 0.0 102143
21:00−6ю326383 0.0 102129
25 января, вт
вт2500:00−6ю336566 0.0 102140
03:00−6ю34711 0.0 102157
06:00−7ю237842 0.0 102236
09:00−3ююз1270100 0.1 1020237
12:00−2ссз256647 0.2 10201262
15:00−5с228481 0.4 1024390
18:00−7ссв119082 0.3 1026241
21:00−7юв118853 0.4 102578
26 января, ср
ср2600:00−7ююв227719 0.0 102381
03:00−7ююв238018 0.0 102186
06:00−8ююв238219 0.0 102088
09:00−5ююв126917 0.1 1017190
12:000ссз125916 0.0 1013600
15:00−3с227552 0.1 1014349
18:00−7вюв019072 0.1 1019150
21:00−8ююв019393 0.1 101846
27 января, чт
чт2700:00−9юв1093100 0.1 101860
03:00−9всв019358 0.1 101859
06:00−10ююв009693 0.1 101866
09:00−8с118592 0.2 1018258
12:00−6с327899 0.1 1016622
15:00−6с2286100 0.6 1017467
18:00−8ссз1294100 0.7 1019203
21:00−8ссз119698 1.1 1021135
28 января, пт
пт2800:00−9зсз019599 0.1 1021104
03:00−9юз0097100 0.3 102244
06:00−9с1195100 0.4 1023149
09:00−9ссв1185100 0.8 1024334
12:00−6с327499 0.1 1022714
15:00−7с3287100 0.4 1023451
18:00−10ююв119257 0.3 102645
21:00−11ю34730 0.3 102766